[[{"header":{"parameterUnit":"m.s-1","parameterCategory":1,"la1":30.2991,"la2":30.254,"lo1":-89.0895,"lo2":-89.0444,"dy":0.0017,"dx":0.0017,"nx":28,"ny":28,"refTime":"2025-09-12T03:00:00:Z","depth":0,"parameterNumber":2,"parameterNumberName":"U-component_of_WINDS"},"data":[0,0,0,0,0,0,0,0,0,0,0,0,0,0,0,0,0,0,0,0,0,0,0,0,0,0,0,0,0,0,0,0,0,0,0,0,0,0,0,0,0,0,0,0,0,0,0,0,0,0,0,0,0,0,0,0,0,0,-1.9822,-1.9822,0,-1.9731,-1.973,-1.9729,-1.9601,-1.9599,-1.9596,-1.9594,-1.9505,-1.9505,-1.9504,0,0,0,0,0,0,0,0,0,0,0,0,0,-1.989,-1.9889,-1.9823,-1.9821,-1.982,-1.9732,-1.973,-1.9729,-1.9601,-1.9599,-1.9596,-1.9593,-1.9505,-1.9505,-1.9504,0,0,0,0,0,0,0,0,0,0,0,0,0,-1.9836,-1.9889,-1.9823,-1.9746,-1.9738,-1.9732,-1.973,-1.9729,-1.9602,-1.9598,-1.9595,-1.9592,-1.9505,-1.9505,-1.9504,-1.9568,0,0,-1.9503,-1.9503,0,0,0,0,0,0,0,0,-1.9839,-1.9834,-1.9758,-1.9751,-1.9742,-1.9674,-1.9721,-1.9675,-1.9603,-1.9654,-1.9594,-1.959,-1.9564,-1.9559,-1.9549,-1.9564,-1.956,-1.9503,-1.9503,-1.9502,-1.9502,0,0,0,0,0,0,0,-1.9843,-1.9837,-1.9787,-1.9757,-1.9748,-1.9717,-1.9706,-1.9712,-1.9629,-1.9649,-1.9639,-1.963,-1.9559,-1.955,-1.9546,-1.9558,-1.9503,-1.9502,-1.9502,-1.9502,-1.9622,-1.9625,0,0,0,0,0,0,-1.9858,-1.9841,-1.9789,-1.9784,-1.9783,-1.9718,-1.9706,-1.9699,-1.9628,-1.9614,-1.9633,-1.9624,-1.9552,-1.9547,-1.9542,-1.9613,-1.9502,-1.9502,-1.9502,-1.9618,-1.9623,-1.9626,0,0,0,0,0,0,-1.986,-1.9854,-1.9793,-1.981,-1.9799,-1.9721,-1.9715,-1.9699,-1.969,-1.9616,-1.9601,-1.9638,-1.9549,-1.9543,-1.9562,-1.9608,-1.9502,-1.9501,-1.9614,-1.962,-1.9625,-1.9754,0,0,0,0,0,0,-1.9862,-1.9856,-1.9878,-1.9811,-1.9799,-1.9814,-1.9717,-1.97,-1.9689,-1.9677,-1.9617,-1.9604,-1.9546,-1.9564,-1.9562,-1.9605,-1.9501,-1.961,-1.9617,-1.9623,-1.9746,-1.9763,-1.9778,0,0,0,0,0,-1.9865,-1.9919,-1.988,-1.9874,-1.9825,-1.9817,-1.981,-1.9741,-1.9693,-1.9715,-1.9668,-1.9606,-1.9603,-1.9567,-1.9564,-1.9608,-1.9607,-1.9615,-1.9622,-1.9738,-1.976,-1.9778,0,0,0,0,0,0,-1.9994,-1.9909,-1.9864,-1.9898,-1.9866,-1.9795,-1.9821,-1.9766,-1.9747,-1.9737,-1.9653,-1.9641,-1.9672,-1.9641,-1.9602,-1.9666,-1.9596,-1.9603,-1.9685,-1.9705,-1.9721,-1.9728,-1.95,0,0,0,0,0,-2.0026,-2.0025,-1.9951,-1.9988,-1.9974,-1.9901,-1.9894,-1.9844,-1.9808,-1.9794,-1.9748,-1.9716,-1.9708,-1.9704,-1.9693,-1.974,-1.9727,-1.9769,-1.9786,-1.9799,-1.9807,-1.9832,-1.9851,-1.9652,-1.9652,-1.9652,0,0,-2.0093,-2.0046,-2.0051,-2.0013,-1.9982,-1.9984,-1.989,-1.9896,-1.9898,-1.9795,-1.981,-1.9776,-1.9735,-1.977,-1.9782,-1.9745,-1.9859,-1.9809,-1.9821,-1.9821,-1.9842,-1.9861,-1.9878,-1.9657,-1.9656,-1.9656,0,0,-2.0217,-2.018,-2.0208,-2.0178,-2.0132,-2.0083,-2.009,-2.0028,-2.0001,-2.0015,-1.9939,-1.994,-1.9927,-1.9901,-1.9887,-2.0002,-1.9944,-2.0,-2.0086,-2.0111,-2.0127,-2.0141,-2.0183,-2.0199,-2.0008,-2.0008,-2.0009,0,-2.0306,-2.0305,-2.0229,-2.024,-2.0226,-2.0132,-2.016,-2.0136,-2.009,-2.0083,-2.0041,-2.0024,-1.999,-2.0018,-2.0046,-2.0036,-2.0043,-2.0007,-2.0131,-2.0143,-2.0155,-2.0195,-2.0211,-2.0016,-2.0015,-2.0014,-2.0013,0,-2.0418,-2.0419,-2.0447,-2.0403,-2.0392,-2.0412,-2.034,-2.0339,-2.029,-2.0246,-2.0263,-2.0218,-2.0196,-2.0199,-2.0151,-2.0221,-2.0199,-2.0146,-2.0073,-2.0182,-2.0218,-2.0233,-2.0026,-2.0023,-2.0021,-2.0019,0,0,-2.0621,-2.0535,-2.0546,-2.0526,-2.0469,-2.0468,-2.0485,-2.0462,-2.0464,-2.0435,-2.0447,-2.0439,-2.0389,-2.0373,-2.0322,-2.0344,-2.044,-2.0287,-2.0285,-2.0318,-2.0515,-2.0557,-2.0576,-2.0401,-2.0403,-2.0405,-2.0519,0,-2.0734,-2.0755,-2.0688,-2.0727,-2.0728,-2.0639,-2.0654,-2.0621,-2.0581,-2.0577,-2.0532,-2.0529,-2.0462,-2.0452,-2.047,-2.0424,-2.0478,-2.0415,-2.0414,-2.0414,-2.0428,-2.0594,-2.0638,-2.0747,-2.0532,-2.0535,-2.0536,0,-2.0869,-2.0846,-2.0886,-2.0827,-2.0825,-2.0839,-2.0814,-2.0811,-2.0773,-2.0742,-2.0724,-2.0664,-2.0678,-2.0608,-2.0627,-2.0585,-2.0581,-2.0558,-2.0561,-2.0559,-2.0483,-2.0598,-2.078,-2.0797,-2.0557,-2.0556,-2.0554,0,-2.1014,-2.0994,-2.1015,-2.1,-2.0932,-2.0945,-2.0917,-2.0875,-2.0867,-2.0845,-2.0839,-2.082,-2.081,-2.0798,-2.0735,-2.069,-2.0762,-2.0686,-2.0738,-2.074,-2.0758,-2.0758,-2.0944,-2.0754,-2.0753,-2.0753,-2.0753,0,-2.1148,-2.1177,-2.108,-2.1093,-2.1123,-2.1045,-2.1077,-2.1041,-2.1005,-2.1011,-2.0933,-2.0941,-2.0857,-2.0855,-2.0807,-2.083,-2.0826,-2.0803,-2.079,-2.0811,-2.0814,-2.0808,-2.0799,-2.0757,-2.0756,-2.0755,-2.0755,0,-2.1316,-2.1252,-2.127,-2.1204,-2.1188,-2.1213,-2.1157,-2.1168,-2.1123,-2.1131,-2.1129,-2.1059,-2.1054,-2.0989,-2.097,-2.0938,-2.0981,-2.0953,-2.0994,-2.0986,-2.1042,-2.1038,-2.1231,-2.1253,-2.1048,-2.105,-2.1052,0,-2.1407,-2.1426,-2.1363,-2.136,-2.1336,-2.1334,-2.1325,-2.125,-2.1244,-2.1202,-2.1219,-2.1207,-2.1193,-2.1189,-2.1138,-2.1123,-2.1095,-2.1163,-2.1092,-2.1113,-2.1098,-2.1098,-2.11,-2.1179,-2.1182,-2.1184,-2.1185,0,-2.1575,-2.1542,-2.1531,-2.151,-2.1501,-2.1481,-2.1456,-2.1459,-2.1377,-2.1374,-2.1367,-2.1357,-2.1337,-2.1328,-2.1304,-2.1277,-2.1219,-2.1208,-2.122,-2.1242,-2.1265,-2.1255,-2.1037,-2.1204,-2.1202,-2.1201,-2.12,-2.1199,-2.1707,-2.1721,-2.1679,-2.167,-2.1643,-2.1622,-2.1629,-2.1584,-2.1577,-2.1554,-2.1511,-2.1511,-2.1474,-2.1436,-2.1414,-2.1414,-2.1379,-2.1396,-2.14,-2.1406,-2.1418,-2.1264,-2.141,-2.1409,-2.1408,-2.1408,-2.1407,0,-2.1872,-2.1841,-2.1833,-2.1801,-2.1794,-2.1738,-2.1708,-2.1707,-2.1708,-2.1677,-2.1665,-2.1659,-2.1649,-2.1596,-2.1581,-2.1592,-2.1565,-2.159,-2.159,-2.1585,-2.1449,-2.1441,-2.1613,-2.1613,-2.1612,-2.1612,-2.1612,-2.1612,-2.1958,-2.1978,-2.1941,-2.1949,-2.1917,-2.1916,-2.1904,-2.1885,-2.186,-2.1855,-2.1847,-2.1812,-2.1773,-2.1755,-2.1744,-2.1729,-2.1728,-2.1763,-2.1739,-2.1614,-2.1594,-2.1575,-2.1567,-2.1763,-2.1763,-2.1875,-2.1876,-2.1877]},{"header":{"parameterUnit":"m.s-1","parameterCategory":1,"la1":30.2991,"la2":30.254,"lo1":-89.0895,"lo2":-89.0444,"dy":0.0017,"dx":0.0017,"nx":28,"ny":28,"refTime":"2025-09-12T03:00:00:Z","depth":0,"parameterNumber":3,"parameterNumberName":"V-component_of_WINDS"},"data":[0,0,0,0,0,0,0,0,0,0,0,0,0,0,0,0,0,0,0,0,0,0,0,0,0,0,0,0,0,0,0,0,0,0,0,0,0,0,0,0,0,0,0,0,0,0,0,0,0,0,0,0,0,0,0,0,0,0,-2.0353,-2.0352,0,-2.0324,-2.0324,-2.0323,-2.028,-2.0279,-2.0278,-2.0277,-2.0248,-2.0248,-2.0248,0,0,0,0,0,0,0,0,0,0,0,0,0,-2.0369,-2.0369,-2.0353,-2.0352,-2.0352,-2.0324,-2.0324,-2.0323,-2.028,-2.0279,-2.0278,-2.0277,-2.0248,-2.0248,-2.0248,0,0,0,0,0,0,0,0,0,0,0,0,0,-2.0354,-2.0369,-2.0353,-2.0327,-2.0324,-2.0324,-2.0323,-2.0323,-2.028,-2.0279,-2.0278,-2.0277,-2.0248,-2.0248,-2.0248,-2.027,0,0,-2.0248,-2.0248,0,0,0,0,0,0,0,0,-2.0355,-2.0353,-2.0331,-2.0329,-2.0326,-2.0304,-2.0319,-2.0305,-2.028,-2.0297,-2.0277,-2.0276,-2.0268,-2.0266,-2.0263,-2.0269,-2.0268,-2.0248,-2.0248,-2.0247,-2.0247,0,0,0,0,0,0,0,-2.0356,-2.0354,-2.0341,-2.0331,-2.0328,-2.0317,-2.0313,-2.0316,-2.0289,-2.0295,-2.0292,-2.0289,-2.0266,-2.0263,-2.0262,-2.0267,-2.0248,-2.0248,-2.0247,-2.0247,-2.0289,-2.029,0,0,0,0,0,0,-2.0361,-2.0355,-2.0342,-2.034,-2.0338,-2.0317,-2.0313,-2.0312,-2.0289,-2.0284,-2.029,-2.0287,-2.0264,-2.0262,-2.0261,-2.0285,-2.0247,-2.0247,-2.0247,-2.0288,-2.0289,-2.0291,0,0,0,0,0,0,-2.0361,-2.036,-2.0343,-2.0347,-2.0344,-2.0318,-2.0317,-2.0312,-2.0309,-2.0285,-2.028,-2.0292,-2.0263,-2.0261,-2.0268,-2.0283,-2.0247,-2.0247,-2.0287,-2.0288,-2.029,-2.0334,0,0,0,0,0,0,-2.0362,-2.036,-2.0369,-2.0347,-2.0344,-2.0352,-2.0318,-2.0313,-2.0309,-2.0305,-2.0286,-2.0281,-2.0262,-2.0268,-2.0268,-2.0283,-2.0247,-2.0285,-2.0287,-2.029,-2.0331,-2.0337,-2.0342,0,0,0,0,0,-2.0363,-2.0383,-2.037,-2.0368,-2.0354,-2.0352,-2.035,-2.0328,-2.0311,-2.0319,-2.0303,-2.0282,-2.0282,-2.027,-2.0269,-2.0284,-2.0284,-2.0287,-2.0289,-2.0329,-2.0336,-2.0342,0,0,0,0,0,0,-2.0407,-2.0379,-2.0365,-2.0378,-2.0368,-2.0345,-2.0355,-2.0336,-2.033,-2.0327,-2.0298,-2.0294,-2.0305,-2.0295,-2.0282,-2.0303,-2.028,-2.0282,-2.031,-2.0317,-2.0322,-2.0324,-2.0247,0,0,0,0,0,-2.0418,-2.0419,-2.0395,-2.041,-2.0405,-2.0381,-2.0379,-2.0363,-2.0351,-2.0346,-2.0331,-2.032,-2.0317,-2.0316,-2.0313,-2.0329,-2.0324,-2.0339,-2.0345,-2.0349,-2.0352,-2.0359,-2.0365,-2.0299,-2.0299,-2.0299,0,0,-2.0442,-2.0427,-2.0429,-2.0418,-2.0408,-2.041,-2.0378,-2.0381,-2.0381,-2.0347,-2.0352,-2.0341,-2.0327,-2.0339,-2.0343,-2.0331,-2.0369,-2.0353,-2.0356,-2.0356,-2.0362,-2.0369,-2.0374,-2.0301,-2.0301,-2.0301,0,0,-2.0485,-2.0474,-2.0485,-2.0475,-2.046,-2.0444,-2.0447,-2.0426,-2.0417,-2.0422,-2.0396,-2.0396,-2.0393,-2.0383,-2.0378,-2.0417,-2.0398,-2.0417,-2.0446,-2.0453,-2.0459,-2.0463,-2.0476,-2.0482,-2.042,-2.042,-2.042,0,-2.0516,-2.0518,-2.0492,-2.0497,-2.0493,-2.0461,-2.0471,-2.0463,-2.0448,-2.0445,-2.0431,-2.0425,-2.0414,-2.0423,-2.0432,-2.0429,-2.0431,-2.0419,-2.046,-2.0464,-2.0468,-2.048,-2.0486,-2.0422,-2.0422,-2.0422,-2.0421,0,-2.0556,-2.0558,-2.0568,-2.0554,-2.055,-2.0558,-2.0533,-2.0533,-2.0516,-2.0501,-2.0506,-2.0491,-2.0484,-2.0484,-2.0468,-2.0491,-2.0483,-2.0465,-2.044,-2.0477,-2.0488,-2.0493,-2.0426,-2.0425,-2.0424,-2.0423,0,0,-2.0628,-2.0599,-2.0603,-2.0596,-2.0577,-2.0577,-2.0583,-2.0575,-2.0575,-2.0565,-2.0569,-2.0566,-2.0549,-2.0543,-2.0525,-2.0532,-2.0563,-2.0512,-2.0512,-2.0522,-2.0586,-2.06,-2.0606,-2.0549,-2.055,-2.0551,-2.0587,0,-2.0667,-2.0675,-2.0652,-2.0666,-2.0667,-2.0636,-2.0641,-2.063,-2.0615,-2.0614,-2.0598,-2.0596,-2.0573,-2.057,-2.0575,-2.0558,-2.0575,-2.0555,-2.0552,-2.0553,-2.0557,-2.0612,-2.0627,-2.0662,-2.0591,-2.0592,-2.0593,0,-2.0715,-2.0707,-2.0721,-2.0701,-2.07,-2.0705,-2.0695,-2.0694,-2.068,-2.0669,-2.0663,-2.0642,-2.0645,-2.0621,-2.0625,-2.0612,-2.0609,-2.0601,-2.0602,-2.0601,-2.0575,-2.0612,-2.0672,-2.0678,-2.0599,-2.0599,-2.0598,0,-2.0765,-2.0758,-2.0766,-2.0761,-2.0737,-2.0741,-2.0731,-2.0716,-2.0713,-2.0704,-2.0701,-2.0694,-2.069,-2.0684,-2.0661,-2.0646,-2.0667,-2.0642,-2.0658,-2.0659,-2.0664,-2.0664,-2.0725,-2.0663,-2.0663,-2.0663,-2.0662,0,-2.0812,-2.0821,-2.0788,-2.0792,-2.0802,-2.0775,-2.0785,-2.0773,-2.0759,-2.076,-2.0733,-2.0735,-2.0705,-2.0703,-2.0685,-2.069,-2.0689,-2.068,-2.0675,-2.0682,-2.0683,-2.068,-2.0677,-2.0664,-2.0664,-2.0663,-2.0663,0,-2.087,-2.0848,-2.0854,-2.083,-2.0825,-2.0833,-2.0813,-2.0816,-2.0799,-2.0801,-2.08,-2.0774,-2.077,-2.0747,-2.0738,-2.0726,-2.0738,-2.0728,-2.0743,-2.074,-2.0757,-2.0756,-2.0818,-2.0824,-2.0758,-2.0759,-2.0759,0,-2.0901,-2.0908,-2.0885,-2.0884,-2.0875,-2.0874,-2.087,-2.0844,-2.0841,-2.0825,-2.083,-2.0823,-2.0817,-2.0812,-2.0793,-2.0785,-2.0775,-2.0797,-2.0774,-2.078,-2.0775,-2.0775,-2.0775,-2.0802,-2.0803,-2.0804,-2.0804,0,-2.0959,-2.0947,-2.0943,-2.0935,-2.0931,-2.0923,-2.0914,-2.0914,-2.0885,-2.0883,-2.0879,-2.0874,-2.0864,-2.0858,-2.0847,-2.0836,-2.0815,-2.0812,-2.0815,-2.0823,-2.0831,-2.0826,-2.0756,-2.0811,-2.081,-2.081,-2.0809,-2.0809,-2.1004,-2.1009,-2.0993,-2.0989,-2.0979,-2.0971,-2.0972,-2.0956,-2.0952,-2.0942,-2.0926,-2.0924,-2.0909,-2.0892,-2.0883,-2.088,-2.0868,-2.0873,-2.0874,-2.0876,-2.0879,-2.0831,-2.0878,-2.0878,-2.0877,-2.0877,-2.0877,0,-2.1061,-2.1049,-2.1046,-2.1033,-2.103,-2.101,-2.0998,-2.0997,-2.0995,-2.0983,-2.0977,-2.0971,-2.0965,-2.0945,-2.0936,-2.0938,-2.0928,-2.0937,-2.0936,-2.0934,-2.0891,-2.0889,-2.0945,-2.0945,-2.0945,-2.0945,-2.0945,-2.0945,-2.109,-2.1096,-2.1082,-2.1083,-2.1071,-2.1069,-2.1064,-2.1055,-2.1045,-2.104,-2.1035,-2.1022,-2.1006,-2.0996,-2.0989,-2.0983,-2.0981,-2.0993,-2.0984,-2.0944,-2.0937,-2.0931,-2.0929,-2.0993,-2.0993,-2.1027,-2.1027,-2.1028]}]]